Location: Geroldsau
(48.7259°N, 8.2466°E)
Time: 09:55:18
(UTC+00:00)

BREEZE-M R/B - Pass Details

Date: 20 June 2021
Orbit: 579 x 26589 km, 48.9° (Epoch: 31 July)

Event Time Altitude Azimuth Distance (km) Brightness Sun altitude
Exits shadow 01:16:18 23° 196° (SSW) 1,256 3.5 -13.9°
Maximum altitude 01:17:56 36° 145° (SE) 997 3.4 -13.8°
Drops below altitude 10° 01:22:36 10° 77° (ENE) 2,814 6.5 -13.5°
Sets 01:26:49 0° 70° (ENE) 4,891 7.9 -13.2°
